Date,TemperatureHighF,TemperatureAvgF,TemperatureLowF,DewpointHighF,DewpointAvgF,DewpointLowF,HumidityHigh,HumidityAvg,HumidityLow,PressureMaxIn,PressureMinIn,WindSpeedMaxMPH,WindSpeedAvgMPH,GustSpeedMaxMPH,PrecipitationSumIn
2013-1-1,40,37,27,30,25,12,71,63,49,30.01,29.84,7,2,14,0.01
2013-1-2,34,28,23,16,13,11,61,55,44,30.18,30.01,7,2,11,0.00
2013-1-3,35,30,24,19,17,15,73,59,45,30.19,30.07,4,1,9,0.00
2013-1-4,40,35,30,24,22,20,68,60,50,30.08,29.95,10,2,13,0.00
2013-1-5,45,37,32,24,22,19,63,55,42,30.28,30.02,10,2,13,0.00
2013-1-6,48,40,33,33,28,23,89,65,48,30.22,29.97,5,1,8,0.00
2013-1-7,48,40,33,30,26,21,77,59,39,30.39,30.05,8,1,10,0.00
2013-1-8,50,40,31,33,29,25,81,68,52,30.43,30.34,3,1,9,0.00
2013-1-9,49,41,31,39,34,28,90,76,65,30.38,30.12,5,1,13,0.00
2013-1-10,50,44,38,34,26,24,65,52,38,30.54,30.23,8,2,12,0.00
2013-1-11,45,40,36,44,33,25,96,75,59,30.53,30.09,2,0,6,0.58
2013-1-12,48,45,42,45,44,41,96,94,91,30.17,30.07,4,0,6,0.02
2013-1-13,48,46,43,47,45,42,98,96,92,30.15,30.01,3,0,5,0.01
2013-1-14,57,50,40,54,44,30,98,80,50,30.29,29.90,6,2,12,0.13
2013-1-15,40,38,35,36,29,26,90,73,62,30.35,30.21,4,1,9,0.13
2013-1-16,37,34,32,34,32,30,95,93,82,30.21,29.82,4,1,7,0.67
2013-1-17,44,40,36,34,29,25,88,67,54,30.09,29.91,5,1,11,0.04
2013-1-18,36,29,26,25,11,4,67,49,32,30.48,30.00,9,2,14,0.00
2013-1-19,51,40,28,30,24,12,71,53,38,30.40,29.91,7,2,10,0.00
2013-1-20,56,43,30,31,24,11,74,49,24,30.04,29.69,13,3,21,0.00
2013-1-21,32,29,25,18,12,8,65,50,42,30.09,29.84,6,1,10,0.00
2013-1-22,27,20,13,13,2,-7,71,46,28,30.21,29.83,9,3,17,0.00
2013-1-23,20,15,10,2,-3,-7,59,46,33,30.25,30.16,8,2,13,0.00
2013-1-24,24,17,12,4,0,-5,69,49,28,30.41,30.13,11,3,17,0.00
2013-1-25,24,18,12,16,6,-3,86,61,42,30.42,30.07,6,1,11,0.00
2013-1-26,28,21,15,13,9,6,84,62,42,30.38,30.05,10,2,13,0.00
2013-1-27,36,26,18,13,11,8,70,53,35,30.53,30.38,12,1,12,0.00
2013-1-28,36,31,25,33,25,13,93,79,55,30.49,30.00,4,1,6,0.01
2013-1-29,57,43,36,44,39,33,94,86,59,30.15,29.99,4,1,8,0.05
2013-1-30,61,47,39,58,46,38,97,94,87,30.06,29.35,3,0,9,0.11
2013-1-31,62,46,29,60,32,10,95,61,36,29.79,29.05,17,5,27,0.97
2013-2-1,32,28,23,16,12,4,70,52,32,30.23,29.79,8,3,16,0.00
2013-2-2,30,24,18,21,10,5,86,56,36,30.30,30.05,6,1,11,0.00
2013-2-3,31,26,23,22,20,17,90,77,60,30.05,29.79,4,1,7,0.00
2013-2-4,32,27,22,20,11,8,76,53,40,29.97,29.81,8,2,14,0.00
2013-2-5,31,29,26,28,25,14,91,84,57,29.98,29.90,3,0,6,0.00
2013-2-6,39,33,28,29,22,5,93,65,37,30.36,29.92,7,2,12,0.01
2013-2-7,33,29,24,23,12,6,70,49,40,30.51,30.32,4,1,6,0.00
2013-2-8,34,32,27,32,29,23,95,88,70,30.32,29.64,10,2,13,0.10
2013-2-9,34,28,21,27,17,8,95,66,39,30.34,29.76,10,3,22,0.00
2013-2-10,36,27,16,23,14,8,74,61,41,30.48,30.32,2,0,9,0.02
2013-2-11,42,37,31,42,34,22,98,90,69,30.33,29.66,2,0,5,0.07
2013-2-12,46,41,36,40,28,25,97,61,47,29.97,29.72,6,2,13,0.01
2013-2-13,45,37,29,32,27,23,92,68,47,29.95,29.69,4,0,8,0.02
2013-2-14,49,39,32,33,30,23,93,71,39,29.99,29.71,5,1,7,0.01
2013-2-15,56,43,34,39,33,28,86,70,41,30.01,29.91,6,1,11,0.00
2013-2-16,41,36,31,34,27,15,91,72,52,29.97,29.74,9,2,12,0.07
2013-2-17,33,27,18,15,6,0,54,41,29,30.02,29.67,13,5,20,0.00
2013-2-18,36,26,16,13,6,1,56,43,29,30.25,30.02,10,2,17,0.00
2013-2-19,49,39,29,44,29,14,93,70,49,30.19,29.67,5,1,16,0.27
2013-2-20,37,31,25,26,14,10,66,51,40,29.99,29.72,9,4,16,0.00
2013-2-21,36,28,24,15,13,10,65,53,41,30.28,29.98,11,4,19,0.00
2013-2-22,38,32,24,32,23,14,80,69,53,30.40,30.26,3,1,7,0.00
2013-2-23,42,38,36,41,36,32,96,94,80,30.27,29.80,5,1,8,0.33
2013-2-24,50,39,33,39,32,22,95,75,53,29.97,29.74,11,3,15,0.01
2013-2-25,45,39,31,29,27,22,79,63,50,30.22,29.98,8,1,10,0.00
2013-2-26,45,39,33,35,31,27,92,73,60,30.28,29.90,6,2,10,0.13
2013-2-27,47,42,36,45,39,34,97,90,77,29.89,29.50,9,2,14,0.94
2013-2-28,52,44,38,39,34,29,83,69,52,29.62,29.54,4,1,9,0.00
2013-3-1,46,40,35,31,29,26,80,67,51,29.78,29.60,7,2,12,0.00
2013-3-2,41,36,31,27,24,23,76,64,52,29.78,29.70,10,2,13,0.00
2013-3-3,41,33,28,23,19,16,71,58,43,29.77,29.66,6,3,12,0.00
2013-3-4,42,34,27,22,19,15,69,55,42,29.91,29.77,12,3,16,0.00
2013-3-5,51,40,30,31,25,20,70,57,40,30.02,29.91,7,1,10,0.00
2013-3-6,42,40,38,36,32,27,83,73,63,29.97,29.85,15,4,18,0.00
2013-3-7,39,36,33,34,30,27,94,80,64,30.08,29.91,10,4,17,0.27
2013-3-8,40,35,31,34,32,30,94,88,73,30.19,30.00,6,1,12,0.55
2013-3-9,56,43,32,34,25,18,79,54,25,30.32,30.17,6,2,11,0.01
2013-3-10,49,40,31,37,34,29,93,80,59,30.39,30.31,5,1,10,0.00
2013-3-11,52,45,39,46,41,35,93,86,74,30.32,30.09,8,1,11,0.00
2013-3-12,57,50,44,57,47,38,98,91,77,30.09,29.65,7,2,12,1.04
2013-3-13,51,44,38,38,31,24,83,62,36,29.89,29.79,5,1,17,0.00
2013-3-14,41,35,30,26,13,6,65,42,26,29.96,29.84,14,4,22,0.00
2013-3-15,47,38,29,31,20,9,62,48,37,29.98,29.71,7,2,12,0.00
2013-3-16,42,36,33,31,26,20,90,69,49,29.91,29.78,6,1,8,0.02
2013-3-17,38,34,28,30,19,13,86,56,39,30.30,29.91,7,2,13,0.01
2013-3-18,37,31,26,32,20,8,94,64,43,30.40,30.02,4,1,8,0.00
2013-3-19,45,38,33,37,34,28,95,85,67,30.01,29.69,5,2,16,0.56
2013-3-20,48,39,32,25,20,17,63,47,32,29.88,29.77,12,2,14,0.00
2013-3-21,40,35,30,28,17,10,85,52,34,29.84,29.62,9,2,11,0.00
2013-3-22,42,35,28,23,18,12,66,50,38,29.89,29.73,9,2,15,0.00
2013-3-23,46,39,32,23,20,18,63,48,35,29.94,29.83,7,2,16,0.00
2013-3-24,48,40,32,28,22,18,63,50,36,29.95,29.70,8,2,13,0.00
2013-3-25,40,38,36,35,30,25,90,74,56,29.70,29.47,6,2,10,0.12
2013-3-26,54,44,36,32,29,24,82,58,35,29.86,29.58,6,2,12,0.00
2013-3-27,55,44,36,31,26,20,65,52,28,29.97,29.85,9,3,13,0.00
2013-3-28,50,44,37,34,30,29,76,59,45,30.11,29.95,10,2,13,0.00
2013-3-29,56,46,38,30,29,26,71,52,34,30.14,30.05,7,2,12,0.00
2013-3-30,60,49,38,32,26,15,70,46,19,30.16,30.05,5,1,9,0.00
2013-3-31,54,46,37,45,35,25,95,67,44,30.11,29.67,6,1,11,0.12
2013-4-1,65,49,38,46,38,13,95,68,34,29.90,29.61,10,2,18,0.01
2013-4-2,46,38,32,18,13,10,50,37,26,30.09,29.91,10,3,14,0.00
2013-4-3,48,39,32,15,12,9,47,34,22,30.30,30.09,11,3,16,0.00
2013-4-4,55,42,32,33,22,14,61,45,28,30.39,30.08,10,2,12,0.00
2013-4-5,66,51,41,31,25,17,65,40,16,30.07,29.70,14,3,16,0.00
2013-4-6,54,43,35,31,17,7,63,39,16,30.30,30.02,11,2,17,0.00
2013-4-7,58,49,39,45,37,27,74,63,38,30.30,29.98,7,2,14,0.00
2013-4-8,75,59,48,47,44,41,83,62,31,30.06,29.96,7,1,15,0.00
2013-4-9,86,69,53,53,45,37,85,49,18,29.99,29.88,8,1,14,0.00
2013-4-10,78,64,56,57,51,45,94,63,44,29.93,29.80,8,1,13,0.63
2013-4-11,62,55,48,58,50,41,96,81,67,30.03,29.76,5,2,11,0.02
2013-4-12,48,44,42,42,40,39,94,89,74,30.02,29.71,8,2,11,0.56
2013-4-13,59,50,40,43,38,34,94,65,42,29.97,29.75,4,1,10,0.03
2013-4-14,59,53,46,44,34,28,83,52,31,30.20,29.96,8,2,13,0.00
2013-4-15,57,50,44,42,32,27,80,52,37,30.37,30.21,5,1,10,0.00
2013-4-16,64,56,48,55,49,42,85,78,70,30.37,30.11,9,2,15,0.00
2013-4-17,74,63,54,57,44,32,82,55,22,30.28,30.10,5,1,10,0.00
2013-4-18,58,54,51,52,45,39,96,73,50,30.34,30.09,9,1,10,0.03
2013-4-19,74,63,53,65,59,52,97,87,71,30.09,29.63,6,1,12,0.10
2013-4-20,64,54,48,61,35,24,91,53,30,30.28,29.68,8,3,16,0.11
2013-4-21,55,46,36,34,24,18,62,44,26,30.61,30.29,12,2,13,0.00
2013-4-22,54,48,40,37,33,29,76,57,41,30.66,30.49,9,2,10,0.00
2013-4-23,52,46,40,42,38,32,89,73,65,30.48,30.11,6,2,11,0.00
2013-4-24,70,55,41,52,46,37,88,72,50,30.10,29.81,5,1,10,0.00
2013-4-25,68,57,47,54,33,21,83,44,18,30.25,29.84,10,2,15,0.00
2013-4-26,69,57,44,40,33,22,74,45,19,30.39,30.25,5,1,10,0.00
2013-4-27,73,59,46,36,31,28,55,37,20,30.42,30.27,5,1,8,0.00
2013-4-28,68,58,49,44,36,30,61,46,27,30.30,30.19,5,1,16,0.00
2013-4-29,56,54,53,51,48,42,89,80,60,30.23,30.18,5,1,9,0.18
2013-4-30,67,57,50,50,40,26,93,58,25,30.33,30.20,7,1,12,0.00
2013-5-1,67,56,46,46,39,29,75,55,26,30.47,30.32,10,2,11,0.00
2013-5-2,71,59,46,47,44,42,89,62,39,30.46,30.31,5,1,9,0.00
2013-5-3,65,56,50,45,41,35,82,58,38,30.46,30.35,7,1,9,0.00
2013-5-4,68,55,45,48,44,40,90,68,38,30.37,30.25,6,1,11,0.00
2013-5-5,61,52,46,45,42,38,81,68,46,30.29,30.23,5,1,10,0.00
2013-5-6,68,56,46,53,48,41,86,75,59,30.27,30.15,6,1,8,0.00
2013-5-7,75,64,50,60,55,47,90,76,57,30.16,30.07,7,1,11,0.00
2013-5-8,67,61,55,62,58,52,96,89,80,30.09,29.96,4,1,8,1.65
2013-5-9,70,61,54,60,56,52,97,84,63,29.99,29.88,5,0,7,1.30
2013-5-10,83,67,55,59,57,53,96,73,42,29.99,29.88,5,1,13,0.00
2013-5-11,74,66,63,66,62,58,95,89,68,29.89,29.68,4,1,9,0.51
2013-5-12,70,63,52,62,42,25,93,50,23,29.93,29.65,9,3,13,0.00
2013-5-13,58,51,45,34,29,24,64,44,29,30.11,29.93,8,2,12,0.00
2013-5-14,64,53,42,34,28,20,71,42,20,30.13,30.01,7,2,10,0.00
2013-5-15,71,60,51,59,46,29,76,62,38,30.06,29.66,4,1,12,0.00
2013-5-16,83,71,61,60,54,42,87,56,34,29.81,29.70,6,1,9,0.00
2013-5-17,76,67,59,45,42,39,55,41,29,30.19,29.82,6,2,11,0.00
2013-5-18,65,60,57,55,50,44,85,72,54,30.30,30.19,3,0,7,0.01
2013-5-19,59,57,56,58,56,52,98,94,77,30.30,30.16,4,1,8,0.47
2013-5-20,82,70,58,68,64,58,98,82,61,30.16,29.95,3,1,8,0.01
2013-5-21,92,78,67,72,68,65,93,73,52,29.96,29.82,6,1,9,0.00
2013-5-22,80,72,61,71,66,58,91,82,71,29.93,29.82,4,1,6,0.00
2013-5-23,84,74,66,71,68,64,95,83,59,29.88,29.74,5,1,11,0.91
2013-5-24,67,57,46,65,53,42,95,89,74,29.95,29.67,14,2,14,0.52
2013-5-25,55,50,46,45,42,38,92,74,57,30.01,29.90,11,3,19,0.34
2013-5-26,70,58,48,40,37,34,71,48,27,30.19,29.95,8,3,21,0.00
2013-5-27,78,64,46,43,39,34,76,43,24,30.24,30.10,5,1,9,0.00
2013-5-28,70,60,55,59,51,43,97,75,45,30.22,30.12,4,0,6,0.66
2013-5-29,89,73,59,70,64,58,98,77,49,30.12,29.98,4,1,9,0.00
2013-5-30,96,85,73,69,66,64,82,56,36,30.11,30.03,5,1,10,0.00
2013-5-31,95,86,74,72,66,59,78,55,32,30.11,29.96,6,1,10,0.00
2013-6-1,95,84,73,71,68,64,83,60,41,30.01,29.87,6,2,10,0.00
2013-6-2,92,83,70,72,69,65,92,64,43,29.90,29.75,8,2,11,1.06
2013-6-3,80,73,69,70,68,49,94,84,49,29.88,29.79,3,1,8,0.42
2013-6-4,79,68,57,47,45,41,64,44,30,30.10,29.88,8,2,13,0.00
2013-6-5,75,66,55,57,46,40,85,51,35,30.20,30.10,8,1,11,0.00
2013-6-6,72,64,59,60,58,51,92,80,51,30.14,30.01,6,1,11,0.15
2013-6-7,64,62,60,63,61,59,97,95,91,30.00,29.61,6,1,14,3.99
2013-6-8,78,69,58,65,62,56,97,79,61,30.04,29.57,5,1,11,0.05
2013-6-9,85,74,61,64,60,57,92,65,42,30.16,30.04,4,1,8,0.00
2013-6-10,71,68,64,66,64,63,97,88,75,30.14,29.82,4,1,12,1.36
2013-6-11,83,74,64,69,66,60,99,78,55,29.80,29.61,7,2,11,0.14
2013-6-12,80,73,66,62,56,53,77,57,42,29.84,29.70,9,2,16,0.00
2013-6-13,67,64,57,62,59,55,95,84,71,29.81,29.45,8,1,14,1.09
2013-6-14,74,62,54,60,54,51,94,77,53,29.88,29.52,7,2,12,0.43
2013-6-15,84,73,60,58,55,51,86,57,33,30.00,29.88,8,1,11,0.00
2013-6-16,85,74,64,67,59,52,78,60,38,29.98,29.76,6,1,15,0.00
2013-6-17,88,78,68,69,66,63,89,69,43,29.90,29.82,6,1,10,0.10
2013-6-18,86,72,65,70,65,61,94,79,53,29.89,29.80,6,1,10,0.36
2013-6-19,80,70,59,63,54,46,94,62,32,30.16,29.87,5,1,11,0.00
2013-6-20,82,72,61,61,56,52,79,59,39,30.25,30.16,6,1,12,0.00
2013-6-21,86,74,63,61,55,49,69,53,37,30.29,30.21,5,1,11,0.00
2013-6-22,88,74,64,64,58,52,70,58,40,30.25,30.12,6,1,11,0.00
2013-6-23,92,79,69,74,68,62,88,69,47,30.18,30.04,6,1,12,0.03
2013-6-24,98,84,74,74,70,61,91,64,33,30.06,29.93,6,1,9,0.00
2013-6-25,96,83,72,73,69,65,81,64,42,29.98,29.80,8,1,13,0.01
2013-6-26,90,81,74,73,69,67,86,67,51,29.84,29.77,5,1,8,0.00
2013-6-27,88,80,74,74,72,69,95,77,54,29.81,29.55,9,1,12,0.49
2013-6-28,90,80,74,72,70,66,92,73,50,29.55,29.46,6,2,12,0.00
2013-6-29,87,79,71,74,69,66,87,74,50,29.68,29.48,7,1,11,0.00
2013-6-30,88,78,74,76,73,71,92,84,64,29.90,29.68,6,1,12,0.01
2013-7-1,78,75,72,75,73,71,98,92,86,30.04,29.89,3,1,9,1.51
2013-7-2,86,78,74,76,74,72,94,85,70,30.17,30.04,4,1,8,0.07
2013-7-3,88,80,74,77,74,70,93,82,64,30.24,30.15,7,1,16,0.04
2013-7-4,93,84,77,76,74,72,92,74,56,30.24,30.13,7,1,10,0.00
2013-7-5,95,86,76,76,73,71,90,68,48,30.21,30.07,5,1,13,0.00
2013-7-6,98,87,79,76,74,71,84,67,44,30.12,30.01,5,2,9,0.00
2013-7-7,98,88,79,76,73,66,80,62,44,30.04,29.91,6,2,14,0.00
2013-7-8,93,82,73,72,69,67,83,65,46,30.03,29.95,5,2,10,0.00
2013-7-9,93,84,75,73,70,67,79,64,47,30.06,29.97,4,1,9,0.02
2013-7-10,91,83,77,76,73,71,86,73,56,30.00,29.79,5,2,10,0.05
2013-7-11,88,82,77,75,71,65,89,70,50,29.91,29.79,6,1,9,0.08
2013-7-12,79,75,69,70,66,63,93,76,67,30.08,29.91,6,2,10,0.12
2013-7-13,83,75,68,76,72,67,97,91,77,30.27,30.09,3,1,7,0.28
2013-7-14,95,84,75,77,74,71,96,73,47,30.32,30.22,4,1,8,0.00
2013-7-15,99,88,79,76,73,70,82,63,45,30.23,30.11,5,1,8,0.00
2013-7-16,96,87,78,73,69,66,74,56,38,30.19,30.11,9,2,9,0.00
2013-7-17,99,88,78,74,72,69,78,61,38,30.18,30.04,3,0,8,0.00
2013-7-18,102,92,83,77,73,69,72,56,35,30.05,29.93,5,1,11,0.00
2013-7-19,100,92,84,79,76,74,78,62,44,29.96,29.77,7,2,13,0.00
2013-7-20,96,87,81,78,74,71,74,65,49,29.82,29.71,7,2,12,0.04
2013-7-21,90,82,78,74,68,62,86,64,42,29.95,29.82,5,1,8,0.03
2013-7-22,86,79,76,77,73,69,95,82,68,29.94,29.79,5,0,11,0.15
2013-7-23,90,81,74,76,73,71,96,78,56,29.78,29.54,7,1,9,0.34
2013-7-24,85,78,69,71,65,54,82,65,51,29.92,29.60,6,2,10,0.00
2013-7-25,69,66,64,60,55,50,79,67,58,30.04,29.93,6,2,11,0.00
2013-7-26,86,75,66,66,61,59,79,63,42,30.03,29.98,6,1,8,0.00
2013-7-27,84,76,67,67,65,60,90,71,49,30.04,29.95,7,2,13,0.00
2013-7-28,79,74,71,72,69,66,94,85,74,29.97,29.91,7,1,14,0.59
2013-7-29,87,77,69,70,64,52,96,67,33,30.09,29.95,4,1,9,0.01
2013-7-30,83,74,63,60,58,56,80,58,43,30.16,30.09,6,1,9,0.00
2013-7-31,85,75,63,65,61,58,83,62,40,30.15,30.02,6,1,9,0.00
2013-8-1,76,71,68,70,66,64,96,84,69,30.03,29.83,3,1,8,1.03
2013-8-2,87,77,66,69,64,60,97,69,42,29.91,29.78,6,1,11,0.00
2013-8-3,80,74,70,67,64,60,87,72,59,29.91,29.83,7,1,10,0.05
2013-8-4,84,74,65,64,58,51,88,60,38,29.96,29.85,9,2,12,0.00
2013-8-5,81,71,61,54,51,46,73,51,34,30.05,29.96,7,1,10,0.00
2013-8-6,84,73,61,63,57,53,82,59,36,30.11,30.02,9,1,11,0.00
2013-8-7,80,74,70,69,66,62,85,75,64,30.13,30.05,11,2,13,0.00
2013-8-8,83,75,70,75,71,67,96,87,73,30.06,29.99,5,1,14,0.41
2013-8-9,88,80,74,77,74,72,95,84,66,30.00,29.79,6,2,14,0.08
2013-8-10,86,78,69,73,65,59,89,65,44,30.04,29.85,5,1,9,0.00
2013-8-11,85,75,64,66,59,54,78,59,41,30.12,30.02,3,1,7,0.00
2013-8-12,85,76,70,71,67,62,90,76,46,30.02,29.92,5,0,8,0.11
2013-8-13,79,74,70,72,69,66,96,86,70,29.92,29.69,3,0,6,0.83
2013-8-14,77,69,60,66,53,49,86,59,44,30.04,29.75,13,2,19,0.00
2013-8-15,81,69,57,56,51,46,78,56,32,30.14,30.05,6,1,8,0.00
2013-8-16,82,72,59,59,55,51,88,59,37,30.20,30.12,5,1,7,0.00
2013-8-17,86,73,60,62,57,54,86,59,36,30.27,30.20,3,0,6,0.00
2013-8-18,78,72,67,64,59,53,76,63,43,30.25,30.13,2,0,5,0.00
2013-8-19,80,73,65,66,63,59,88,70,54,30.13,30.03,4,1,7,0.00
2013-8-20,91,79,65,68,65,63,94,66,39,30.12,30.04,3,0,10,0.00
2013-8-21,93,81,69,67,64,59,87,58,34,30.17,30.05,4,1,6,0.00
2013-8-22,80,75,72,73,71,66,93,86,63,30.06,29.87,9,1,11,0.38
2013-8-23,84,76,70,71,62,54,93,63,36,30.09,29.87,6,1,10,0.00
2013-8-24,83,72,63,60,55,52,73,57,37,30.34,30.10,7,1,9,0.00
2013-8-25,86,74,60,59,57,52,91,59,33,30.39,30.23,5,1,8,0.00
2013-8-26,84,76,68,70,63,57,83,65,54,30.23,29.90,6,2,14,0.03
2013-8-27,90,80,73,70,69,67,86,71,49,29.90,29.81,7,2,11,0.00
2013-8-28,88,76,71,74,71,68,94,86,59,29.89,29.84,3,0,7,0.73
2013-8-29,82,75,71,71,69,66,96,83,66,30.02,29.87,4,1,6,0.00
2013-8-30,87,77,70,72,68,66,87,76,56,30.02,29.85,5,1,9,0.00
2013-8-31,89,80,73,75,72,69,89,77,61,29.86,29.77,5,1,8,0.00
2013-9-1,86,79,75,76,73,70,92,81,69,29.85,29.78,5,1,7,0.35
2013-9-2,85,78,75,76,74,71,95,87,72,29.79,29.70,2,0,5,0.24
2013-9-3,84,76,69,73,65,57,95,72,47,29.88,29.70,7,1,10,0.02
2013-9-4,84,74,64,61,59,54,80,61,42,30.00,29.88,8,2,12,0.00
2013-9-5,81,72,63,62,54,43,80,56,33,30.14,29.92,9,2,12,0.00
2013-9-6,74,64,55,51,45,41,67,51,33,30.25,30.13,4,1,7,0.00
2013-9-7,82,70,55,54,50,46,81,51,31,30.12,29.89,3,1,9,0.00
2013-9-8,84,73,63,66,56,45,74,57,36,30.08,29.82,12,2,14,0.00
2013-9-9,72,65,56,60,51,44,76,60,40,30.23,30.08,6,1,10,0.00
2013-9-10,89,78,69,74,69,60,85,75,61,30.16,30.04,4,1,10,0.00
2013-9-11,97,86,76,78,75,72,90,70,52,30.11,29.95,5,1,9,0.00
2013-9-12,88,79,71,75,72,68,93,79,62,29.98,29.66,4,1,12,0.36
2013-9-13,79,69,59,68,60,49,93,74,49,29.85,29.63,14,2,14,0.13
2013-9-14,68,60,53,50,47,45,77,65,52,30.13,29.85,7,2,12,0.00
2013-9-15,74,62,48,53,47,43,85,59,35,30.21,30.07,5,1,8,0.00
2013-9-16,77,65,59,58,54,48,88,70,45,30.24,30.03,7,1,12,0.02
2013-9-17,67,57,48,48,40,37,70,55,38,30.43,30.24,7,2,12,0.00
2013-9-18,74,60,47,53,46,42,88,63,34,30.35,30.18,4,1,9,0.00
2013-9-19,79,65,49,59,52,47,91,66,33,30.19,30.06,5,0,8,0.00
2013-9-20,80,67,55,61,57,52,92,73,47,30.08,29.99,7,1,12,0.00
2013-9-21,76,68,57,68,62,55,94,84,69,30.01,29.66,9,1,12,0.21
2013-9-22,71,64,55,67,53,42,96,69,43,29.91,29.65,8,2,13,0.61
2013-9-23,68,58,50,46,43,41,74,60,42,30.05,29.91,7,2,13,0.00
2013-9-24,75,60,45,47,44,40,84,59,35,30.05,29.87,5,1,9,0.00
2013-9-25,76,62,48,52,47,43,85,60,35,29.95,29.86,3,0,5,0.00
2013-9-26,72,63,55,59,55,50,89,77,60,30.09,29.93,4,0,7,0.00
2013-9-27,72,62,55,55,52,50,85,71,56,30.26,30.09,3,1,6,0.00
2013-9-28,75,64,55,55,53,50,89,69,43,30.32,30.23,3,1,7,0.00
2013-9-29,75,62,54,59,54,51,94,77,50,30.23,30.08,4,0,9,0.00
2013-9-30,76,63,52,57,53,50,95,73,45,30.08,29.96,3,0,8,0.00
2013-10-1,84,69,53,61,57,51,93,68,42,30.01,29.89,6,1,9,0.00
2013-10-2,86,73,58,64,60,54,88,66,47,30.01,29.90,6,1,10,0.00
2013-10-3,81,71,59,62,58,50,89,66,35,30.12,30.01,2,0,6,0.00
2013-10-4,88,75,64,69,63,57,84,67,47,30.06,29.95,5,1,10,0.00
2013-10-5,77,69,65,66,64,62,93,85,69,30.10,30.01,4,1,8,0.05
2013-10-6,70,68,66,67,66,64,95,93,90,30.09,30.02,4,1,7,0.00
2013-10-7,79,68,59,73,65,51,97,89,73,30.02,29.75,12,2,16,0.43
2013-10-8,70,60,53,50,46,42,85,62,39,30.32,29.99,5,1,9,0.00
2013-10-9,62,57,51,50,47,42,80,69,62,30.39,30.28,5,1,10,0.00
2013-10-10,63,58,53,55,51,47,88,79,75,30.28,30.07,6,2,10,0.02
2013-10-11,68,63,60,61,58,54,92,81,74,30.08,30.00,6,2,9,0.00
2013-10-12,73,65,59,59,50,40,80,58,31,30.28,30.06,11,2,14,0.00
2013-10-13,66,60,56,55,52,49,82,74,65,30.38,30.27,6,1,11,0.00
2013-10-14,69,58,50,52,50,47,91,75,48,30.36,30.24,3,0,9,0.00
2013-10-15,74,60,50,57,51,48,95,75,50,30.25,30.11,3,0,7,0.00
2013-10-16,68,61,54,60,56,49,91,83,70,30.11,29.91,3,0,6,0.00
2013-10-17,75,66,61,63,61,59,95,85,63,29.91,29.68,4,0,9,0.01
2013-10-18,71,63,56,63,48,42,90,60,40,29.98,29.67,9,2,14,0.00
2013-10-19,64,56,46,55,46,41,87,71,46,29.98,29.74,5,1,8,0.00
2013-10-20,65,57,49,54,40,34,87,56,34,30.06,29.75,5,2,13,0.00
2013-10-21,69,57,43,47,40,35,82,57,31,30.15,29.98,4,1,10,0.00
2013-10-22,67,57,50,50,47,38,86,70,53,29.98,29.75,6,1,8,0.00
2013-10-23,56,49,44,39,37,34,76,65,46,29.82,29.61,7,1,9,0.00
2013-10-24,56,46,40,36,31,26,78,58,35,30.02,29.75,8,2,13,0.00
2013-10-25,55,46,38,35,31,28,74,57,40,30.23,30.01,9,2,12,0.00
2013-10-26,56,47,36,35,32,29,83,58,37,30.22,29.90,8,1,16,0.00
2013-10-27,59,52,45,35,33,31,62,49,36,30.12,29.85,7,2,11,0.00
2013-10-28,62,51,40,36,34,31,75,54,36,30.31,30.12,9,1,10,0.00
2013-10-29,57,49,43,36,33,31,67,56,43,30.42,30.31,3,1,6,0.00
2013-10-30,61,51,42,51,43,33,89,74,62,30.35,30.17,2,0,8,0.00
2013-10-31,66,58,49,61,54,47,93,87,76,30.22,29.79,9,1,9,0.09
2013-11-1,70,66,60,64,59,54,93,79,59,29.79,29.55,9,2,20,0.17
2013-11-2,70,59,53,57,47,40,92,66,42,29.78,29.61,5,1,9,0.00
2013-11-3,54,46,35,43,33,21,79,61,46,30.45,29.77,8,2,12,0.00
2013-11-4,46,39,32,26,20,16,60,47,31,30.65,30.46,5,1,9,0.00
2013-11-5,55,47,37,44,36,26,81,67,58,30.65,30.48,6,0,7,0.00
2013-11-6,60,53,42,52,46,40,93,79,60,30.49,30.06,7,1,9,0.00
2013-11-7,63,54,42,58,49,33,93,82,61,30.06,29.74,6,1,14,0.17
2013-11-8,50,44,39,34,28,22,76,56,41,30.22,29.94,7,2,11,0.00
2013-11-9,50,44,36,35,28,25,72,56,38,30.29,29.99,5,1,9,0.00
2013-11-10,61,49,40,40,34,27,79,58,36,30.05,29.80,9,2,19,0.00
2013-11-11,54,48,39,34,30,26,61,49,41,30.21,29.96,9,2,11,0.00
2013-11-12,51,38,30,35,25,17,88,60,45,30.29,29.93,6,2,15,0.04
2013-11-13,39,33,27,20,16,11,66,50,32,30.38,30.27,9,2,12,0.00
2013-11-14,53,42,31,21,18,14,64,42,22,30.27,30.16,8,2,12,0.00
2013-11-15,57,47,35,30,26,20,65,45,28,30.25,30.15,4,1,6,0.00
2013-11-16,60,51,45,48,42,29,95,73,44,30.32,30.22,4,0,8,0.04
2013-11-17,60,54,47,58,52,46,97,92,86,30.27,29.79,5,0,6,0.00
2013-11-18,66,60,51,62,42,25,98,57,31,29.78,29.59,8,2,13,0.31
2013-11-19,50,43,36,30,25,22,58,49,43,30.34,29.78,8,4,16,0.00
2013-11-20,44,36,31,22,17,11,65,48,27,30.61,30.34,7,1,13,0.00
2013-11-21,51,42,30,43,31,19,77,66,52,30.61,30.38,5,1,9,0.00
2013-11-22,58,53,49,50,47,41,91,80,74,30.38,29.90,7,1,8,0.04
2013-11-23,54,42,30,48,25,9,85,52,34,30.03,29.90,12,3,18,0.00
2013-11-24,29,25,22,11,4,0,48,41,29,30.38,30.02,13,4,18,0.00
2013-11-25,36,29,21,14,11,6,57,48,38,30.49,30.33,6,2,10,0.00
2013-11-26,45,36,32,44,26,15,96,68,45,30.33,29.77,3,1,6,0.64
2013-11-27,61,47,34,60,43,21,98,87,58,29.75,29.34,10,3,17,2.57
2013-11-28,35,32,29,22,13,9,62,47,35,30.47,29.76,9,2,19,0.00
2013-11-29,38,33,28,21,18,13,65,55,46,30.73,30.47,4,1,7,0.00
2013-11-30,37,31,23,28,19,11,72,62,46,30.76,30.38,3,1,6,0.00
2013-12-1,49,42,34,34,30,27,81,65,50,30.37,30.01,3,0,6,0.00
2013-12-2,49,43,39,38,34,29,88,71,60,30.00,29.88,2,0,3,0.00
2013-12-3,54,44,36,39,36,34,92,75,53,30.00,29.87,2,0,5,0.00
2013-12-4,50,45,37,44,39,33,87,79,66,30.13,30.01,3,0,4,0.00
2013-12-5,58,52,46,56,50,43,97,93,81,30.12,29.93,2,0,4,0.04
2013-12-6,57,47,36,56,45,35,98,93,88,30.15,29.86,7,1,10,1.13
2013-12-7,41,36,31,35,27,17,94,72,54,30.51,30.10,7,2,13,0.12
2013-12-8,33,30,27,28,20,15,94,69,57,30.59,30.38,6,1,7,0.00
2013-12-9,38,34,30,36,33,28,96,94,91,30.37,29.97,5,2,9,0.47
2013-12-10,35,32,28,32,29,18,95,88,66,30.13,29.88,7,1,10,0.12
2013-12-11,33,29,24,18,17,15,71,62,49,30.33,30.14,8,2,13,0.00
2013-12-12,27,24,21,17,9,5,68,53,41,30.36,30.17,7,2,11,0.00
2013-12-13,35,28,20,19,13,6,60,53,45,30.32,30.13,7,2,15,0.00
2013-12-14,32,24,19,27,19,16,96,83,57,30.48,29.84,7,2,10,0.00
2013-12-15,39,36,31,34,28,22,86,73,64,29.84,29.59,7,2,13,0.14
2013-12-16,32,27,23,23,13,9,71,56,44,30.23,29.83,9,2,12,0.00
2013-12-17,29,24,21,27,17,-100,92,79,61,30.22,29.93,3,-12,7,0.00
2013-12-18,37,29,20,25,21,17,87,72,56,30.16,29.93,7,2,11,0.06
2013-12-19,44,36,27,32,26,20,79,68,52,30.18,30.02,4,1,8,0.11
2013-12-20,50,43,34,39,33,31,88,70,53,30.10,29.96,4,1,8,0.00
2013-12-21,62,53,44,54,48,39,93,82,68,29.99,29.89,5,1,8,0.00
2013-12-22,70,65,56,64,60,53,93,82,72,29.95,29.80,8,3,14,0.01
2013-12-23,62,55,41,59,52,30,97,89,66,30.16,29.89,9,1,18,0.61
2013-12-24,41,35,25,30,22,9,72,60,47,30.35,30.09,11,3,16,0.00
2013-12-25,25,20,18,10,7,6,62,56,51,30.53,30.35,9,2,14,0.00
2013-12-26,36,33,32,27,22,-100,74,69,61,30.28,30.16,6,-18,8,0.00
2013-12-27,40,34,29,25,22,18,73,60,46,30.36,30.26,6,1,9,0.00
2013-12-28,55,42,30,30,26,22,74,54,36,30.28,30.06,6,2,14,0.00
2013-12-29,46,42,40,40,35,28,96,77,50,30.05,29.42,6,1,10,1.42
2013-12-30,44,35,22,38,26,10,91,71,54,30.19,29.69,9,2,13,0.00
2013-12-31,31,26,20,24,12,8,76,58,46,30.29,30.06,6,2,16,0.00
2014-1-1,33,28,22,21,16,8,65,59,49,30.41,30.24,4,1,6,0.00
2014-1-2,31,24,14,23,20,11,91,81,64,30.23,29.68,9,3,12,0.00